Meteo orario Zagorzyca

Oggi, 29 Luglio, Giovedi

Tempo Temperatura Precipitazioni Vento Pressione Umidità
00:00 +18°C° 0 mm 3 m/s 750 mm Hg 87%
01:00 +17°C° 0 mm 3 m/s 750 mm Hg 90%
02:00 +17°C° 0 mm 3 m/s 750 mm Hg 90%
03:00 +17°C° 0 mm 3 m/s 750 mm Hg 91%
04:00 +16°C° 0 mm 3 m/s 750 mm Hg 92%
05:00 +18°C° 0 mm 4 m/s 750 mm Hg 85%
06:00 +19°C° 0 mm 4 m/s 750 mm Hg 79%
07:00 +20°C° 0 mm 5 m/s 750 mm Hg 72%
08:00 +21°C° 0 mm 5 m/s 750 mm Hg 64%
09:00 +23°C° 0 mm 6 m/s 750 mm Hg 55%
10:00 +24°C° 0 mm 6 m/s 750 mm Hg 47%
11:00 +26°C° 0 mm 6 m/s 750 mm Hg 45%
12:00 +26°C° 0 mm 7 m/s 750 mm Hg 43%
13:00 +26°C° 0 mm 7 m/s 749 mm Hg 41%
14:00 +24°C° 0.1 mm 6 m/s 749 mm Hg 45%
15:00 +23°C° 0.1 mm 6 m/s 750 mm Hg 49%
16:00 +22°C° 0.1 mm 6 m/s 750 mm Hg 53%
17:00 +22°C° 0 mm 6 m/s 750 mm Hg 52%
18:00 +21°C° 0 mm 5 m/s 750 mm Hg 51%
19:00 +20°C° 0 mm 5 m/s 750 mm Hg 50%
20:00 +19°C° 0 mm 5 m/s 750 mm Hg 54%
21:00 +17°C° 0 mm 5 m/s 750 mm Hg 58%
22:00 +17°C° 0 mm 4 m/s 750 mm Hg 61%
23:00 +16°C° 0 mm 5 m/s 750 mm Hg 63%

Domani, 30 Luglio, Venerdi

Tempo Temperatura Precipitazioni Vento Pressione Umidità
00:00 +15°C° 0 mm 5 m/s 750 mm Hg 64%
01:00 +15°C° 0 mm 5 m/s 750 mm Hg 66%
02:00 +14°C° 0 mm 6 m/s 749 mm Hg 69%
03:00 +14°C° 0 mm 6 m/s 749 mm Hg 71%
04:00 +13°C° 0 mm 6 m/s 749 mm Hg 74%
05:00 +14°C° 0 mm 6 m/s 749 mm Hg 70%
06:00 +16°C° 0 mm 7 m/s 749 mm Hg 66%
07:00 +17°C° 0 mm 8 m/s 749 mm Hg 62%
08:00 +18°C° 0 mm 8 m/s 749 mm Hg 56%
09:00 +19°C° 0 mm 9 m/s 749 mm Hg 50%
10:00 +22°C° 0 mm 9 m/s 748 mm Hg 43%
11:00 +23°C° 0 mm 9 m/s 748 mm Hg 42%
12:00 +23°C° 0 mm 10 m/s 748 mm Hg 40%
13:00 +24°C° 0 mm 10 m/s 748 mm Hg 38%
14:00 +24°C° 0 mm 9 m/s 748 mm Hg 39%
15:00 +24°C° 0 mm 9 m/s 748 mm Hg 40%
16:00 +24°C° 0 mm 9 m/s 748 mm Hg 41%
17:00 +23°C° 0 mm 8 m/s 748 mm Hg 47%
18:00 +22°C° 0 mm 7 m/s 748 mm Hg 54%
19:00 +20°C° 0 mm 7 m/s 748 mm Hg 61%
20:00 +20°C° 0 mm 6 m/s 748 mm Hg 66%
21:00 +19°C° 0 mm 6 m/s 748 mm Hg 71%
22:00 +17°C° 0 mm 5 m/s 748 mm Hg 76%
23:00 +16°C° 0 mm 5 m/s 748 mm Hg 80%

Dopodomani, 31 Luglio, Sabato

Tempo Temperatura Precipitazioni Vento Pressione Umidità
00:00 +15°C° 0 mm 4 m/s 748 mm Hg 83%
01:00 +15°C° 0 mm 4 m/s 748 mm Hg 87%
02:00 +14°C° 0 mm 4 m/s 748 mm Hg 86%
03:00 +14°C° 0 mm 3 m/s 748 mm Hg 86%
04:00 +14°C° 0 mm 3 m/s 748 mm Hg 85%
05:00 +17°C° 0 mm 3 m/s 748 mm Hg 77%
06:00 +18°C° 0 mm 3 m/s 748 mm Hg 68%
07:00 +20°C° 0 mm 4 m/s 748 mm Hg 60%
08:00 +22°C° 0 mm 4 m/s 747 mm Hg 55%
09:00 +23°C° 0 mm 5 m/s 747 mm Hg 51%
10:00 +26°C° 0 mm 5 m/s 747 mm Hg 46%
11:00 +26°C° 0.2 mm 5 m/s 747 mm Hg 50%
12:00 +26°C° 0.2 mm 5 m/s 747 mm Hg 54%
13:00 +25°C° 0.2 mm 5 m/s 747 mm Hg 57%
14:00 +25°C° 0.1 mm 5 m/s 746 mm Hg 56%
15:00 +25°C° 0.1 mm 5 m/s 746 mm Hg 55%
16:00 +23°C° 0.1 mm 5 m/s 746 mm Hg 54%
17:00 +22°C° 0 mm 5 m/s 746 mm Hg 56%
18:00 +22°C° 0 mm 5 m/s 746 mm Hg 58%
19:00 +21°C° 0 mm 5 m/s 746 mm Hg 60%
20:00 +20°C° 0 mm 5 m/s 746 mm Hg 61%
21:00 +19°C° 0 mm 5 m/s 746 mm Hg 63%
22:00 +17°C° 0 mm 5 m/s 746 mm Hg 64%
23:00 +17°C° 0 mm 6 m/s 746 mm Hg 66%

1 Agosto, Domenica

Tempo Temperatura Precipitazioni Vento Pressione Umidità
00:00 +17°C° 0 mm 7 m/s 746 mm Hg 69%
01:00 +17°C° 0 mm 8 m/s 746 mm Hg 71%
02:00 +16°C° 0.1 mm 7 m/s 747 mm Hg 74%
03:00 +16°C° 0.1 mm 7 m/s 747 mm Hg 78%
04:00 +16°C° 0.1 mm 7 m/s 747 mm Hg 81%
05:00 +16°C° 0.1 mm 7 m/s 747 mm Hg 81%
06:00 +16°C° 0.1 mm 6 m/s 747 mm Hg 81%
07:00 +16°C° 0.1 mm 6 m/s 748 mm Hg 81%
08:00 +17°C° 0.1 mm 6 m/s 748 mm Hg 72%
09:00 +20°C° 0.1 mm 6 m/s 748 mm Hg 63%
10:00 +21°C° 0.1 mm 6 m/s 749 mm Hg 54%
11:00 +22°C° 0 mm 6 m/s 749 mm Hg 51%
12:00 +22°C° 0 mm 6 m/s 749 mm Hg 47%
13:00 +23°C° 0 mm 6 m/s 749 mm Hg 44%
14:00 +22°C° 0 mm 6 m/s 749 mm Hg 45%
15:00 +22°C° 0 mm 6 m/s 749 mm Hg 47%
16:00 +22°C° 0 mm 6 m/s 749 mm Hg 48%
17:00 +21°C° 0 mm 6 m/s 749 mm Hg 53%
18:00 +20°C° 0 mm 5 m/s 750 mm Hg 59%
19:00 +19°C° 0 mm 5 m/s 750 mm Hg 64%
20:00 +18°C° 0 mm 4 m/s 750 mm Hg 69%
21:00 +17°C° 0 mm 4 m/s 750 mm Hg 73%
22:00 +16°C° 0 mm 3 m/s 750 mm Hg 78%
23:00 +16°C° 0 mm 3 m/s 750 mm Hg 78%

2 Agosto, Lunedi

Tempo Temperatura Precipitazioni Vento Pressione Umidità
00:00 +16°C° 0 mm 3 m/s 750 mm Hg 77%
01:00 +16°C° 0 mm 3 m/s 750 mm Hg 77%
02:00 +16°C° 0 mm 3 m/s 750 mm Hg 77%
03:00 +14°C° 0 mm 4 m/s 750 mm Hg 78%
04:00 +14°C° 0 mm 4 m/s 750 mm Hg 78%
05:00 +15°C° 0.1 mm 4 m/s 750 mm Hg 75%
06:00 +17°C° 0.1 mm 4 m/s 750 mm Hg 72%
07:00 +17°C° 0.1 mm 5 m/s 750 mm Hg 68%
08:00 +19°C° 0.1 mm 5 m/s 751 mm Hg 63%
09:00 +20°C° 0.1 mm 6 m/s 751 mm Hg 57%
10:00 +21°C° 0.1 mm 6 m/s 751 mm Hg 52%
11:00 +21°C° 0 mm 6 m/s 751 mm Hg 52%
12:00 +21°C° 0 mm 6 m/s 752 mm Hg 52%
13:00 +21°C° 0 mm 6 m/s 752 mm Hg 52%
14:00 +21°C° 0.1 mm 6 m/s 752 mm Hg 53%
15:00 +21°C° 0.1 mm 6 m/s 752 mm Hg 54%
16:00 +21°C° 0.1 mm 5 m/s 752 mm Hg 55%
17:00 +20°C° 0 mm 5 m/s 752 mm Hg 60%
18:00 +19°C° 0 mm 4 m/s 752 mm Hg 64%
19:00 +18°C° 0 mm 3 m/s 752 mm Hg 69%
20:00 +18°C° 0 mm 3 m/s 752 mm Hg 73%
21:00 +17°C° 0 mm 3 m/s 752 mm Hg 76%
22:00 +16°C° 0 mm 2 m/s 752 mm Hg 79%
23:00 +16°C° 0 mm 2 m/s 752 mm Hg 81%

3 Agosto, Martedi

Tempo Temperatura Precipitazioni Vento Pressione Umidità
00:00 +15°C° 0 mm 2 m/s 752 mm Hg 83%
01:00 +14°C° 0 mm 3 m/s 753 mm Hg 85%
02:00 +13°C° 0 mm 3 m/s 753 mm Hg 87%
03:00 +13°C° 0 mm 3 m/s 753 mm Hg 90%
04:00 +13°C° 0 mm 3 m/s 753 mm Hg 92%
05:00 +14°C° 0 mm 4 m/s 753 mm Hg 85%
06:00 +15°C° 0 mm 4 m/s 753 mm Hg 78%
07:00 +17°C° 0 mm 5 m/s 753 mm Hg 72%
08:00 +19°C° 0 mm 5 m/s 753 mm Hg 63%
09:00 +21°C° 0 mm 5 m/s 753 mm Hg 55%
10:00 +22°C° 0 mm 6 m/s 754 mm Hg 46%
11:00 +22°C° 0 mm 6 m/s 753 mm Hg 46%
12:00 +23°C° 0 mm 6 m/s 753 mm Hg 45%
13:00 +23°C° 0 mm 6 m/s 753 mm Hg 44%
14:00 +23°C° 0 mm 5 m/s 753 mm Hg 46%
15:00 +22°C° 0 mm 5 m/s 754 mm Hg 48%
16:00 +22°C° 0 mm 5 m/s 754 mm Hg 49%
17:00 +21°C° 0 mm 4 m/s 754 mm Hg 54%
18:00 +20°C° 0 mm 3 m/s 754 mm Hg 58%
19:00 +19°C° 0 mm 2 m/s 754 mm Hg 63%
20:00 +18°C° 0 mm 2 m/s 754 mm Hg 66%
21:00 +18°C° 0 mm 2 m/s 754 mm Hg 69%
22:00 +17°C° 0 mm 2 m/s 754 mm Hg 73%
23:00 +17°C° 0 mm 2 m/s 754 mm Hg 74%
Mostrare altro

Abbiamo bisogno del tuo consenso

Meteoprog e i nostri fornitori di servizi possono memorizzare e accedere a dati personali come cookie, identificatori di dispositivi o altre tecnologie simili sul tuo dispositivo e possono elaborare tali dati per personalizzare i contenuti e gli annunci, nonché fornire funzionalità dei social media e analizzarne il traffico.

  • Archiviare e/o accedere alle informazioni sul tuo dispositivo

    Cookie, identificatori di dispositivi o altre informazioni possono essere memorizzati o resi accessibili sul tuo dispositivo per le finalità sopra indicate.

  • Annunci e contenuti personalizzati, misurazione di annunci e contenuti, approfondimenti sul pubblico e sviluppo di prodotti

    Gli annunci e i contenuti possono essere personalizzati in base a un profilo. È possibile aggiungere più dati per personalizzare meglio annunci e contenuti. È possibile misurare il rendimento degli annunci e dei contenuti. È possibile ricavare informazioni sul pubblico che ha visto gli annunci e i contenuti. Tali dati possono essere utilizzati per sviluppare o migliorare l'esperienza, i sistemi e il software dell'utente.

Cliccando su “Accetto”, acconsenti all'uso di cookie, identificatori di dispositivo, web beacon o altre tecnologie simili. Puoi modificare le impostazioni nel browser del tuo dispositivo.

Per determinati scopi, è possibile fare affidamento su interessi legali, piuttosto che sul consenso. Puoi approfondire questo argomento consultando la nostra Informativa sulla privacy e sui cookie.